[[{"header":{"parameterUnit":"m.s-1","parameterCategory":1,"la1":30.2991,"la2":30.254,"lo1":-89.0895,"lo2":-89.0444,"dy":0.0017,"dx":0.0017,"nx":28,"ny":28,"refTime":"2024-10-05T09:00:00:Z","depth":0,"parameterNumber":2,"parameterNumberName":"U-component_of_WINDS"},"data":[0,0,0,0,0,0,0,0,0,0,0,0,0,0,0,0,0,0,0,0,0,0,0,0,0,0,0,0,0,0,0,0,0,0,0,0,0,0,0,0,0,0,0,0,0,0,0,0,0,0,0,0,0,0,0,0,0,0,-4.0036,-4.0037,0,-4.012,-4.0121,-4.0122,-4.0084,-4.0082,-4.008,-4.0078,-4.0165,-4.0169,-4.0173,0,0,0,0,0,0,0,0,0,0,0,0,0,-3.9846,-3.985,-4.0036,-4.0037,-4.0038,-4.012,-4.0121,-4.0122,-4.0084,-4.0082,-4.0079,-4.0077,-4.0163,-4.0168,-4.0173,0,0,0,0,0,0,0,0,0,0,0,0,0,-3.9929,-3.9851,-4.0036,-4.0029,-4.003,-4.0119,-4.0121,-4.0122,-4.0085,-4.0082,-4.0078,-4.0076,-4.0161,-4.0168,-4.0174,-4.0276,0,0,-4.0193,-4.0196,0,0,0,0,0,0,0,0,-3.9924,-3.9936,-4.0029,-4.003,-4.003,-4.0088,-4.0085,-4.0174,-4.0086,-4.0064,-4.0078,-4.0074,-4.0142,-4.015,-4.0172,-4.028,-4.0284,-4.0194,-4.0198,-4.0201,-4.0202,0,0,0,0,0,0,0,-3.9919,-3.9932,-4.0069,-4.0031,-4.0031,-4.0023,-4.0031,-4.0102,-4.0119,-4.0065,-4.0063,-4.0073,-4.0141,-4.0166,-4.0174,-4.0285,-4.0194,-4.0199,-4.0203,-4.0206,-4.0483,-4.0486,0,0,0,0,0,0,-3.9913,-3.9928,-4.0067,-4.0072,-3.9969,-4.0029,-4.0038,-4.0073,-4.0118,-4.0122,-4.0076,-4.0071,-4.0157,-4.0166,-4.0177,-4.0301,-4.0201,-4.0207,-4.021,-4.0479,-4.0483,-4.0487,0,0,0,0,0,0,-3.9909,-3.9926,-4.0063,-3.9999,-4.0016,-4.0035,-4.0075,-4.0076,-4.0101,-4.0126,-4.0129,-4.0098,-4.0155,-4.0168,-4.0252,-4.0303,-4.0209,-4.0215,-4.0475,-4.048,-4.0485,-4.0549,0,0,0,0,0,0,-3.9904,-3.9924,-3.9963,-4.0,-4.002,-4.0137,-4.0078,-4.008,-4.0112,-4.0106,-4.0148,-4.0151,-4.0153,-4.0243,-4.0258,-4.031,-4.022,-4.047,-4.0477,-4.0484,-4.0542,-4.0556,-4.0567,0,0,0,0,0,-3.9897,-3.9977,-3.9965,-3.9982,-4.0068,-4.014,-4.0151,-4.0151,-4.0116,-4.0155,-4.0172,-4.015,-4.0295,-4.0251,-4.0269,-4.0324,-4.0467,-4.0475,-4.0483,-4.0537,-4.0553,-4.0567,0,0,0,0,0,0,-3.9946,-3.9982,-3.9969,-4.0064,-4.0099,-4.0133,-4.0183,-4.0168,-4.0214,-4.0207,-4.0205,-4.0215,-4.0303,-4.0321,-4.0272,-4.0426,-4.0376,-4.0388,-4.0411,-4.0426,-4.0439,-4.0433,-4.0225,0,0,0,0,0,-3.9967,-4.0022,-4.0051,-4.0132,-4.015,-4.0164,-4.0195,-4.0192,-4.0228,-4.0243,-4.0266,-4.0303,-4.0357,-4.0392,-4.0443,-4.0544,-4.0554,-4.0591,-4.0603,-4.0613,-4.0624,-4.0681,-4.0698,-4.0513,-4.0513,-4.0513,0,0,-4.0013,-4.0039,-4.0074,-4.0142,-4.0169,-4.0227,-4.0176,-4.0239,-4.0282,-4.0253,-4.0334,-4.0352,-4.0393,-4.0487,-4.0529,-4.0505,-4.0677,-4.0623,-4.0631,-4.0636,-4.0691,-4.0708,-4.0724,-4.0519,-4.0518,-4.0517,0,0,-4.0126,-4.0151,-4.0222,-4.025,-4.0291,-4.03,-4.0317,-4.0354,-4.0365,-4.0446,-4.0426,-4.0477,-4.0569,-4.06,-4.0628,-4.0753,-4.0736,-4.077,-4.0835,-4.0891,-4.0906,-4.0919,-4.0966,-4.0982,-4.078,-4.078,-4.078,0,-4.0177,-4.0263,-4.026,-4.0325,-4.0357,-4.0332,-4.0405,-4.0432,-4.0489,-4.0511,-4.0483,-4.0599,-4.0625,-4.0727,-4.0757,-4.078,-4.0801,-4.0766,-4.0904,-4.0917,-4.0929,-4.0974,-4.0991,-4.0784,-4.0784,-4.0783,-4.0783,0,-4.0326,-4.0385,-4.0438,-4.0493,-4.053,-4.0599,-4.0607,-4.0645,-4.0638,-4.065,-4.0734,-4.0764,-4.0822,-4.0845,-4.0839,-4.0947,-4.0931,-4.0903,-4.0853,-4.095,-4.0993,-4.101,-4.079,-4.0788,-4.0787,-4.0786,0,0,-4.0473,-4.0526,-4.0545,-4.0571,-4.0615,-4.0661,-4.0729,-4.0785,-4.0819,-4.0858,-4.0916,-4.0995,-4.097,-4.1002,-4.0999,-4.1048,-4.1148,-4.1014,-4.1015,-4.104,-4.1271,-4.1293,-4.1312,-4.1136,-4.1139,-4.1142,-4.1268,0,-4.0591,-4.0709,-4.0709,-4.0819,-4.0876,-4.0853,-4.0913,-4.0947,-4.0959,-4.101,-4.1023,-4.1081,-4.1042,-4.1062,-4.1108,-4.1126,-4.1195,-4.1116,-4.1192,-4.1194,-4.1184,-4.1334,-4.1357,-4.1475,-4.1284,-4.1287,-4.1289,0,-4.0744,-4.0789,-4.0905,-4.0943,-4.0966,-4.102,-4.1072,-4.1119,-4.1158,-4.1164,-4.1199,-4.119,-4.126,-4.1207,-4.1304,-4.1251,-4.1282,-4.1295,-4.13,-4.1309,-4.1249,-4.1349,-4.1513,-4.1531,-4.1314,-4.1312,-4.1311,0,-4.0843,-4.0932,-4.1014,-4.1036,-4.1081,-4.1119,-4.114,-4.1175,-4.1209,-4.1255,-4.1277,-4.133,-4.136,-4.1401,-4.1407,-4.1367,-4.1506,-4.1452,-4.1515,-4.1515,-4.1547,-4.1545,-4.1719,-4.1563,-4.1562,-4.1562,-4.1562,0,-4.0976,-4.1049,-4.1059,-4.1109,-4.119,-4.1189,-4.1269,-4.1286,-4.1318,-4.1372,-4.1355,-4.1407,-4.141,-4.1463,-4.1467,-4.1549,-4.1561,-4.1569,-4.157,-4.1572,-4.1572,-4.1594,-4.1587,-4.1567,-4.1566,-4.1565,-4.1564,0,-4.1101,-4.111,-4.1198,-4.1233,-4.1244,-4.1302,-4.1333,-4.1382,-4.1392,-4.1461,-4.1477,-4.1495,-4.1557,-4.1565,-4.1637,-4.164,-4.1739,-4.173,-4.1726,-4.1726,-4.1788,-4.1783,-4.1985,-4.2013,-4.1836,-4.1837,-4.1839,0,-4.1186,-4.1242,-4.1283,-4.1318,-4.1341,-4.1397,-4.1432,-4.1433,-4.147,-4.1519,-4.1562,-4.1622,-4.167,-4.1769,-4.1789,-4.1845,-4.1838,-4.1905,-4.1847,-4.1848,-4.1842,-4.184,-4.1846,-4.1917,-4.1919,-4.1921,-4.1922,0,-4.1338,-4.134,-4.1391,-4.1444,-4.1486,-4.1528,-4.1567,-4.1597,-4.1603,-4.1646,-4.1708,-4.1746,-4.1819,-4.188,-4.1935,-4.1956,-4.1942,-4.194,-4.1958,-4.1962,-4.1958,-4.1963,-4.176,-4.1936,-4.1934,-4.1933,-4.1933,-4.1932,-4.1447,-4.1496,-4.1533,-4.1591,-4.1621,-4.1658,-4.1706,-4.1723,-4.1775,-4.1835,-4.1832,-4.1902,-4.194,-4.2012,-4.2038,-4.2093,-4.2072,-4.2097,-4.2104,-4.211,-4.2118,-4.1947,-4.2103,-4.2103,-4.2102,-4.2102,-4.2102,0,-4.16,-4.1623,-4.1676,-4.1732,-4.1777,-4.1758,-4.18,-4.184,-4.1902,-4.1938,-4.1986,-4.2059,-4.2117,-4.2142,-4.2199,-4.2239,-4.2234,-4.2254,-4.2253,-4.2259,-4.2133,-4.2113,-4.2258,-4.2258,-4.2258,-4.2258,-4.2258,-4.2258,-4.1685,-4.1767,-4.1774,-4.1871,-4.1894,-4.1962,-4.1988,-4.2023,-4.2052,-4.2134,-4.2183,-4.2198,-4.2231,-4.2291,-4.2344,-4.235,-4.2373,-4.2397,-4.24,-4.2283,-4.2267,-4.2252,-4.2233,-4.2402,-4.2402,-4.2522,-4.2523,-4.2524]},{"header":{"parameterUnit":"m.s-1","parameterCategory":1,"la1":30.2991,"la2":30.254,"lo1":-89.0895,"lo2":-89.0444,"dy":0.0017,"dx":0.0017,"nx":28,"ny":28,"refTime":"2024-10-05T09:00:00:Z","depth":0,"parameterNumber":3,"parameterNumberName":"V-component_of_WINDS"},"data":[0,0,0,0,0,0,0,0,0,0,0,0,0,0,0,0,0,0,0,0,0,0,0,0,0,0,0,0,0,0,0,0,0,0,0,0,0,0,0,0,0,0,0,0,0,0,0,0,0,0,0,0,0,0,0,0,0,0,-3.7405,-3.7404,0,-3.7384,-3.7384,-3.7383,-3.7312,-3.731,-3.7309,-3.7307,-3.7288,-3.7289,-3.729,0,0,0,0,0,0,0,0,0,0,0,0,0,-3.7384,-3.7385,-3.7405,-3.7404,-3.7404,-3.7384,-3.7384,-3.7383,-3.7312,-3.731,-3.7308,-3.7306,-3.7287,-3.7289,-3.729,0,0,0,0,0,0,0,0,0,0,0,0,0,-3.7381,-3.7385,-3.7405,-3.7366,-3.7362,-3.7384,-3.7384,-3.7383,-3.7313,-3.731,-3.7308,-3.7305,-3.7287,-3.7288,-3.729,-3.7348,0,0,-3.7294,-3.7295,0,0,0,0,0,0,0,0,-3.7381,-3.7382,-3.7372,-3.7369,-3.7365,-3.7348,-3.7369,-3.7371,-3.7313,-3.7332,-3.7307,-3.7304,-3.731,-3.7309,-3.7311,-3.7347,-3.7346,-3.7295,-3.7295,-3.7296,-3.7297,0,0,0,0,0,0,0,-3.7382,-3.7382,-3.7396,-3.7372,-3.7368,-3.735,-3.7347,-3.7369,-3.7335,-3.733,-3.7325,-3.7323,-3.7307,-3.731,-3.731,-3.7346,-3.7295,-3.7296,-3.7297,-3.7297,-3.7428,-3.743,0,0,0,0,0,0,-3.7387,-3.7383,-3.7397,-3.7396,-3.7367,-3.7353,-3.7349,-3.7356,-3.7334,-3.7328,-3.7325,-3.732,-3.7308,-3.7308,-3.7309,-3.7375,-3.7296,-3.7297,-3.7298,-3.7425,-3.7428,-3.7431,0,0,0,0,0,0,-3.7387,-3.7389,-3.7398,-3.7388,-3.7388,-3.7356,-3.7364,-3.7357,-3.7359,-3.7331,-3.7324,-3.7334,-3.7306,-3.7307,-3.7338,-3.7373,-3.7298,-3.73,-3.7422,-3.7426,-3.743,-3.7508,0,0,0,0,0,0,-3.7387,-3.7389,-3.7411,-3.7389,-3.7389,-3.7428,-3.7366,-3.7358,-3.7361,-3.7354,-3.7337,-3.7332,-3.7304,-3.7337,-3.734,-3.7374,-3.7301,-3.7419,-3.7424,-3.7429,-3.7502,-3.7514,-3.7524,0,0,0,0,0,-3.7386,-3.7434,-3.7412,-3.7414,-3.7414,-3.743,-3.743,-3.7397,-3.7364,-3.7386,-3.7368,-3.7332,-3.7369,-3.734,-3.7344,-3.7379,-3.7417,-3.7423,-3.7428,-3.7497,-3.7512,-3.7524,0,0,0,0,0,0,-3.7461,-3.743,-3.7406,-3.7448,-3.7442,-3.7418,-3.7444,-3.7413,-3.7417,-3.741,-3.7369,-3.7366,-3.7404,-3.7394,-3.7363,-3.7433,-3.7387,-3.7394,-3.7438,-3.7452,-3.7463,-3.7465,-3.7302,0,0,0,0,0,-3.7483,-3.7497,-3.747,-3.751,-3.7508,-3.7476,-3.7482,-3.7457,-3.7449,-3.7447,-3.7431,-3.7425,-3.7435,-3.7443,-3.7451,-3.75,-3.7496,-3.7526,-3.7537,-3.7546,-3.7553,-3.7579,-3.7592,-3.745,-3.745,-3.745,0,0,-3.7527,-3.7512,-3.7524,-3.7524,-3.7517,-3.7533,-3.7475,-3.7495,-3.7506,-3.745,-3.7478,-3.7467,-3.7458,-3.7499,-3.7516,-3.7492,-3.7591,-3.7554,-3.7561,-3.7563,-3.7586,-3.76,-3.7612,-3.7454,-3.7454,-3.7453,0,0,-3.7617,-3.7607,-3.7639,-3.7632,-3.7621,-3.76,-3.7608,-3.7588,-3.7578,-3.7606,-3.7564,-3.7578,-3.7596,-3.7591,-3.7592,-3.7679,-3.7647,-3.7683,-3.7741,-3.7767,-3.7778,-3.7788,-3.7819,-3.7831,-3.7689,-3.769,-3.769,0,-3.7674,-3.7696,-3.7659,-3.7682,-3.7683,-3.7632,-3.7664,-3.766,-3.7653,-3.7655,-3.7628,-3.765,-3.764,-3.768,-3.7701,-3.7703,-3.7711,-3.7685,-3.7779,-3.7788,-3.7797,-3.7827,-3.7839,-3.7694,-3.7694,-3.7693,-3.7693,0,-3.7767,-3.7784,-3.7811,-3.7804,-3.7809,-3.7836,-3.7804,-3.7813,-3.7788,-3.777,-3.7799,-3.7786,-3.779,-3.7797,-3.7773,-3.7833,-3.7819,-3.7786,-3.7739,-3.7816,-3.7843,-3.7854,-3.7701,-3.7699,-3.7698,-3.7696,0,0,-3.7904,-3.7876,-3.7887,-3.7883,-3.7867,-3.7879,-3.7905,-3.7908,-3.7917,-3.7913,-3.7934,-3.7951,-3.792,-3.792,-3.7895,-3.7918,-3.7988,-3.7882,-3.7881,-3.7903,-3.8055,-3.808,-3.8093,-3.7967,-3.7969,-3.797,-3.8055,0,-3.799,-3.8031,-3.7998,-3.8045,-3.806,-3.8011,-3.8033,-3.8026,-3.801,-3.802,-3.8002,-3.8015,-3.7974,-3.7973,-3.7993,-3.7976,-3.8019,-3.7969,-3.7986,-3.7987,-3.799,-3.8108,-3.8134,-3.8215,-3.8066,-3.8068,-3.8069,0,-3.8095,-3.8096,-3.8144,-3.8125,-3.813,-3.815,-3.815,-3.8161,-3.8152,-3.8138,-3.8139,-3.8107,-3.8131,-3.8084,-3.8117,-3.8084,-3.8089,-3.8082,-3.8084,-3.8085,-3.8033,-3.8112,-3.824,-3.8253,-3.8085,-3.8084,-3.8083,0,-3.8191,-3.8204,-3.8234,-3.8232,-3.821,-3.8226,-3.8218,-3.8206,-3.821,-3.8211,-3.8213,-3.8217,-3.822,-3.8223,-3.8194,-3.8163,-3.8231,-3.8182,-3.8221,-3.8222,-3.8238,-3.8238,-3.8369,-3.8241,-3.8241,-3.824,-3.824,0,-3.829,-3.8322,-3.8277,-3.8296,-3.833,-3.8292,-3.8327,-3.8314,-3.8304,-3.832,-3.8278,-3.8294,-3.8254,-3.8266,-3.8243,-3.8274,-3.8276,-3.8266,-3.826,-3.827,-3.8271,-3.8273,-3.8267,-3.8244,-3.8243,-3.8242,-3.8242,0,-3.8403,-3.8374,-3.8404,-3.838,-3.8375,-3.8402,-3.8382,-3.8398,-3.8379,-3.84,-3.8402,-3.8373,-3.8385,-3.8355,-3.8363,-3.8348,-3.8393,-3.8377,-3.8396,-3.8391,-3.8432,-3.8429,-3.857,-3.8587,-3.8448,-3.8449,-3.845,0,-3.8468,-3.8491,-3.847,-3.8477,-3.8471,-3.8483,-3.8487,-3.8451,-3.8457,-3.8448,-3.8466,-3.8474,-3.8479,-3.8501,-3.848,-3.8486,-3.8471,-3.852,-3.8471,-3.8481,-3.8472,-3.8471,-3.8474,-3.853,-3.8532,-3.8533,-3.8534,0,-3.8588,-3.8572,-3.8579,-3.8581,-3.8586,-3.8586,-3.8583,-3.8592,-3.8553,-3.8562,-3.8573,-3.8577,-3.8584,-3.8594,-3.8595,-3.8587,-3.8555,-3.8549,-3.8559,-3.857,-3.858,-3.8576,-3.8423,-3.8547,-3.8545,-3.8544,-3.8544,-3.8543,-3.8679,-3.8697,-3.8685,-3.8694,-3.8687,-3.8686,-3.87,-3.8682,-3.8691,-3.8694,-3.8672,-3.8688,-3.8679,-3.8677,-3.8672,-3.8685,-3.8663,-3.8676,-3.868,-3.8684,-3.8691,-3.8578,-3.8685,-3.8685,-3.8684,-3.8684,-3.8684,0,-3.8796,-3.8786,-3.8794,-3.8791,-3.8798,-3.8766,-3.8761,-3.877,-3.8784,-3.8778,-3.8783,-3.8796,-3.8805,-3.8785,-3.879,-3.8804,-3.879,-3.8807,-3.8806,-3.8805,-3.871,-3.8702,-3.8819,-3.8819,-3.8819,-3.8819,-3.8819,-3.8819,-3.8858,-3.8888,-3.8871,-3.8897,-3.8886,-3.8901,-3.8901,-3.8899,-3.8893,-3.891,-3.8916,-3.8903,-3.8891,-3.8895,-3.8902,-3.8896,-3.89,-3.8923,-3.8912,-3.8824,-3.8811,-3.8799,-3.879,-3.8924,-3.8924,-3.9005,-3.9006,-3.9006]}]]